[[{"header":{"parameterUnit":"m.s-1","parameterCategory":2,"la1":30.2991,"la2":30.254,"lo1":-89.0895,"lo2":-89.0444,"dy":0.0017,"dx":0.0017,"nx":28,"ny":28,"refTime":"2024-03-03T09:00:00:Z","depth":"0","parameterNumber":2,"parameterNumberName":"U-component_of_CURRENTS"},"data":[0,0,0,0,0,0,0,0,0,0,0,0,0,0,0,0,0,0,0,0,0,0,0,0,0,0,0,0,0,0,0,0,0,0,0,0,0,0,0,0,0,0,0,0,0,0,0,0,0,0,0,0,0,0,0,0,0,0,0.1584,0.1584,0,0.1586,0.1586,0.1586,0.1567,0.1566,0.1566,0.1566,0.1543,0.1542,0.1542,0,0,0,0,0,0,0,0,0,0,0,0,0,0.156,0.156,0.1584,0.1584,0.1584,0.1586,0.1586,0.1586,0.1567,0.1566,0.1566,0.1566,0.1543,0.1542,0.1542,0,0,0,0,0,0,0,0,0,0,0,0,0,0.1565,0.156,0.1584,0.1576,0.1576,0.1586,0.1586,0.1586,0.1567,0.1566,0.1566,0.1565,0.1543,0.1542,0.1542,0.155,0,0,0.1541,0.154,0,0,0,0,0,0,0,0,0.1565,0.1566,0.1577,0.1577,0.1576,0.1577,0.1569,0.1573,0.1567,0.1568,0.1566,0.1565,0.1553,0.1552,0.1551,0.1549,0.1548,0.1541,0.154,0.154,0.154,0,0,0,0,0,0,0,0.1565,0.1566,0.1583,0.1577,0.1577,0.1572,0.1572,0.157,0.1562,0.1568,0.1567,0.1571,0.1553,0.1552,0.1551,0.1548,0.1541,0.154,0.154,0.154,0.1588,0.159,0,0,0,0,0,0,0.1569,0.1566,0.1583,0.1583,0.1571,0.1573,0.1573,0.1576,0.1562,0.1561,0.1571,0.157,0.1553,0.1551,0.155,0.1579,0.154,0.154,0.154,0.1587,0.1589,0.159,0,0,0,0,0,0,0.1568,0.157,0.1583,0.1576,0.1577,0.1574,0.1578,0.1576,0.1579,0.1565,0.1562,0.1576,0.1552,0.155,0.1558,0.1577,0.154,0.1539,0.1585,0.1587,0.1589,0.1624,0,0,0,0,0,0,0.1568,0.157,0.1573,0.1576,0.1578,0.1594,0.1578,0.1577,0.1583,0.1581,0.1569,0.1566,0.1552,0.1559,0.1558,0.1576,0.1539,0.1583,0.1586,0.1589,0.1621,0.1627,0.1632,0,0,0,0,0,0.1567,0.1573,0.1573,0.1575,0.1582,0.1595,0.1595,0.1589,0.1584,0.1589,0.1585,0.1567,0.1577,0.156,0.1558,0.1576,0.1582,0.1585,0.1588,0.1618,0.1626,0.1632,0,0,0,0,0,0,0.156,0.1572,0.1572,0.158,0.159,0.1592,0.1597,0.1596,0.1597,0.1596,0.158,0.1577,0.1593,0.1585,0.1567,0.1602,0.1579,0.1582,0.1602,0.1609,0.1615,0.1617,0.1539,0,0,0,0,0,0.1562,0.1572,0.1582,0.1589,0.1596,0.1599,0.1603,0.1603,0.1606,0.1605,0.1599,0.1599,0.1607,0.1608,0.161,0.1625,0.1636,0.1639,0.1645,0.165,0.1653,0.1691,0.1701,0.1602,0.1602,0.1602,0,0,0.156,0.157,0.1573,0.1589,0.1595,0.161,0.16,0.1612,0.1624,0.1603,0.1616,0.1617,0.1617,0.1635,0.1642,0.1628,0.1689,0.1654,0.1658,0.1659,0.1696,0.1706,0.1714,0.1604,0.1604,0.1603,0,0,0.1565,0.1573,0.1584,0.1597,0.1614,0.162,0.1627,0.1636,0.164,0.1655,0.165,0.1664,0.1667,0.1675,0.1679,0.1722,0.1719,0.1726,0.1753,0.179,0.1798,0.1805,0.1846,0.1857,0.1727,0.1727,0.1727,0,0.1562,0.1576,0.1588,0.1606,0.1616,0.1627,0.1641,0.1654,0.1664,0.1675,0.1664,0.1694,0.1689,0.1722,0.1735,0.1734,0.1756,0.1721,0.1797,0.1804,0.1811,0.1851,0.1862,0.1729,0.1729,0.1729,0.1729,0,0.1575,0.159,0.16,0.1625,0.164,0.1655,0.1676,0.1692,0.1699,0.1711,0.1743,0.1746,0.1763,0.177,0.1761,0.1812,0.1814,0.1799,0.1775,0.1823,0.1862,0.1873,0.1732,0.1732,0.1731,0.1731,0,0,0.1553,0.1599,0.1601,0.1615,0.165,0.166,0.1694,0.1723,0.1747,0.1764,0.1797,0.1816,0.1821,0.1828,0.1829,0.1859,0.1926,0.185,0.1851,0.1884,0.2019,0.203,0.2043,0.1924,0.1926,0.1928,0.2032,0,0.1556,0.1588,0.1612,0.1639,0.1654,0.1683,0.1713,0.1745,0.177,0.1807,0.1831,0.1861,0.1844,0.1858,0.1888,0.1916,0.1955,0.19,0.1974,0.1976,0.1974,0.2056,0.1986,0.2074,0.2043,0.2044,0.2046,0,0.1552,0.1576,0.1601,0.1646,0.1656,0.1675,0.1721,0.1755,0.1817,0.184,0.1881,0.1901,0.1954,0.193,0.2011,0.1978,0.2004,0.2025,0.2029,0.2032,0.2008,0.2019,0.2094,0.2027,0.2063,0.2061,0.206,0,0.1515,0.1564,0.158,0.1595,0.165,0.1666,0.1699,0.1758,0.1792,0.1867,0.1904,0.1961,0.2,0.2042,0.2087,0.2055,0.2181,0.2139,0.2178,0.2179,0.213,0.2124,0.214,0.2204,0.2204,0.2204,0.2203,0,0.1498,0.1509,0.1563,0.157,0.1597,0.1646,0.1686,0.173,0.1803,0.1851,0.1918,0.1973,0.2031,0.2103,0.2126,0.2204,0.2218,0.2207,0.2216,0.2142,0.2136,0.2082,0.205,0.2208,0.2207,0.2206,0.2205,0,0.1446,0.1483,0.1503,0.156,0.1576,0.1595,0.1668,0.17,0.1785,0.1853,0.1881,0.1998,0.2102,0.2169,0.2256,0.2263,0.2265,0.2345,0.2262,0.2259,0.2208,0.2181,0.2174,0.2067,0.2401,0.2402,0.2403,0,0.1419,0.1426,0.148,0.1493,0.1514,0.1557,0.1585,0.1672,0.1713,0.1864,0.1893,0.2032,0.2112,0.2274,0.2339,0.2418,0.2311,0.2379,0.2298,0.2223,0.2198,0.2116,0.2016,0.2253,0.2252,0.2252,0.2252,0,0.1367,0.1388,0.1408,0.1439,0.1462,0.1496,0.1547,0.1574,0.1685,0.1755,0.1864,0.1949,0.2152,0.2228,0.2363,0.239,0.2256,0.2374,0.2312,0.2112,0.2006,0.1899,0.2169,0.2249,0.2249,0.2249,0.2249,0.225,0.1323,0.1326,0.1357,0.1376,0.1403,0.1418,0.1413,0.148,0.1533,0.1605,0.1754,0.1836,0.2046,0.2243,0.2284,0.2311,0.2263,0.2222,0.2207,0.214,0.1995,0.2272,0.2346,0.2346,0.2347,0.2348,0.2348,0,0.1261,0.1274,0.1293,0.1306,0.1293,0.1339,0.1368,0.1346,0.1363,0.1475,0.1548,0.1724,0.1861,0.203,0.2195,0.2141,0.2024,0.207,0.1914,0.1826,0.2097,0.2048,0.2039,0.2039,0.2039,0.2039,0.2039,0.2039,0.1231,0.1217,0.1225,0.1183,0.119,0.1134,0.1125,0.1112,0.1162,0.122,0.1309,0.143,0.173,0.2012,0.2055,0.2005,0.1795,0.1778,0.1707,0.189,0.1901,0.1911,0.1856,0.1807,0.1807,0.1335,0.1332,0.1329]},{"header":{"parameterUnit":"m.s-1","parameterCategory":2,"la1":30.2991,"la2":30.254,"lo1":-89.0895,"lo2":-89.0444,"dy":0.0017,"dx":0.0017,"nx":28,"ny":28,"refTime":"2024-03-03T09:00:00:Z","depth":"0","parameterNumber":3,"parameterNumberName":"V-component_of_CURRENTS"},"data":[0,0,0,0,0,0,0,0,0,0,0,0,0,0,0,0,0,0,0,0,0,0,0,0,0,0,0,0,0,0,0,0,0,0,0,0,0,0,0,0,0,0,0,0,0,0,0,0,0,0,0,0,0,0,0,0,0,0,-0.0243,-0.0243,0,-0.0325,-0.0326,-0.0327,-0.0373,-0.0372,-0.0372,-0.0372,-0.0459,-0.0461,-0.0463,0,0,0,0,0,0,0,0,0,0,0,0,0,-0.0163,-0.0164,-0.0242,-0.0243,-0.0244,-0.0325,-0.0326,-0.0327,-0.0373,-0.0372,-0.0372,-0.0372,-0.0458,-0.0461,-0.0464,0,0,0,0,0,0,0,0,0,0,0,0,0,-0.0218,-0.0165,-0.0242,-0.0275,-0.0279,-0.0325,-0.0326,-0.0328,-0.0373,-0.0372,-0.0372,-0.0372,-0.0457,-0.0461,-0.0464,-0.0486,0,0,-0.0474,-0.0476,0,0,0,0,0,0,0,0,-0.0215,-0.0221,-0.027,-0.0273,-0.0277,-0.0337,-0.033,-0.038,-0.0373,-0.0339,-0.0372,-0.0372,-0.0418,-0.0424,-0.0442,-0.049,-0.0493,-0.0475,-0.0477,-0.0478,-0.0479,0,0,0,0,0,0,0,-0.0211,-0.0218,-0.0277,-0.0271,-0.0275,-0.03,-0.0307,-0.034,-0.0378,-0.0342,-0.0345,-0.0352,-0.042,-0.0438,-0.0444,-0.0495,-0.0475,-0.0478,-0.048,-0.0481,-0.0545,-0.0545,0,0,0,0,0,0,-0.0196,-0.0214,-0.0274,-0.0279,-0.0244,-0.0301,-0.0309,-0.0319,-0.0378,-0.0387,-0.0352,-0.0353,-0.0432,-0.044,-0.0447,-0.0457,-0.0478,-0.0482,-0.0484,-0.0546,-0.0545,-0.0545,0,0,0,0,0,0,-0.0194,-0.0201,-0.0271,-0.0247,-0.0258,-0.0302,-0.0313,-0.0321,-0.0336,-0.0385,-0.0394,-0.0358,-0.0433,-0.0442,-0.0467,-0.0461,-0.0483,-0.0486,-0.0546,-0.0546,-0.0545,-0.0489,0,0,0,0,0,0,-0.0192,-0.02,-0.0201,-0.0246,-0.0258,-0.0289,-0.0313,-0.0322,-0.034,-0.0343,-0.0394,-0.0402,-0.0434,-0.0462,-0.0471,-0.0467,-0.0489,-0.0547,-0.0546,-0.0545,-0.0491,-0.0486,-0.0482,0,0,0,0,0,-0.0189,-0.0189,-0.0201,-0.0208,-0.0259,-0.0289,-0.0298,-0.033,-0.034,-0.0344,-0.0375,-0.04,-0.0464,-0.0464,-0.0475,-0.0472,-0.0547,-0.0546,-0.0545,-0.0493,-0.0487,-0.0482,0,0,0,0,0,0,-0.0155,-0.0195,-0.0209,-0.0221,-0.0249,-0.0296,-0.0304,-0.0325,-0.0354,-0.0355,-0.0399,-0.041,-0.0429,-0.0457,-0.0457,-0.0487,-0.0508,-0.0509,-0.0465,-0.046,-0.0456,-0.0446,-0.0492,0,0,0,0,0,-0.0147,-0.0159,-0.0199,-0.0207,-0.0219,-0.0259,-0.0275,-0.0296,-0.0328,-0.0341,-0.0375,-0.0408,-0.0436,-0.0451,-0.0482,-0.05,-0.0526,-0.0504,-0.0499,-0.0495,-0.0494,-0.0524,-0.0522,-0.0542,-0.0542,-0.0542,0,0,-0.0136,-0.0159,-0.0166,-0.02,-0.0225,-0.0238,-0.0269,-0.0288,-0.0297,-0.0346,-0.0365,-0.0396,-0.0437,-0.0456,-0.0467,-0.0478,-0.0502,-0.0494,-0.0491,-0.0492,-0.0523,-0.0521,-0.052,-0.0541,-0.0542,-0.0542,0,0,-0.0118,-0.0139,-0.0143,-0.0163,-0.0195,-0.0219,-0.022,-0.0262,-0.0278,-0.03,-0.0334,-0.0359,-0.0404,-0.0431,-0.045,-0.044,-0.0477,-0.0448,-0.042,-0.0448,-0.0447,-0.0446,-0.0469,-0.047,-0.0445,-0.0445,-0.0445,0,-0.01,-0.0114,-0.0147,-0.0156,-0.0166,-0.0205,-0.0207,-0.023,-0.0273,-0.0281,-0.0297,-0.0358,-0.0393,-0.0415,-0.0412,-0.0431,-0.045,-0.0435,-0.0442,-0.0442,-0.0442,-0.0466,-0.0468,-0.0442,-0.0443,-0.0443,-0.0443,0,-0.009,-0.0098,-0.01,-0.0123,-0.0138,-0.0145,-0.0177,-0.0189,-0.021,-0.0237,-0.0262,-0.031,-0.0345,-0.0359,-0.0385,-0.0399,-0.0414,-0.0432,-0.0454,-0.0437,-0.0463,-0.0466,-0.0438,-0.0439,-0.044,-0.0441,0,0,-0.0051,-0.0086,-0.0085,-0.0088,-0.0119,-0.0128,-0.0135,-0.0155,-0.0153,-0.0197,-0.0202,-0.0254,-0.0281,-0.0304,-0.034,-0.0367,-0.0385,-0.0395,-0.0398,-0.0413,-0.0443,-0.0429,-0.0432,-0.0403,-0.0404,-0.0404,-0.0457,0,-0.0029,-0.0033,-0.0057,-0.0053,-0.0055,-0.0085,-0.0084,-0.0105,-0.0129,-0.0143,-0.0193,-0.0214,-0.026,-0.0271,-0.0306,-0.0366,-0.0393,-0.0368,-0.046,-0.0463,-0.045,-0.0436,-0.041,-0.0453,-0.0461,-0.0462,-0.0462,0,-0.0007,-0.0012,-0.0006,-0.0013,-0.0015,-0.0017,-0.0019,-0.0028,-0.0057,-0.0073,-0.0109,-0.0148,-0.0195,-0.0232,-0.0328,-0.0309,-0.0369,-0.0418,-0.0421,-0.0432,-0.0456,-0.0474,-0.046,-0.0588,-0.0468,-0.0468,-0.0468,0,0.0038,0.0027,0.0037,0.0032,0.0016,0.0021,0.0014,-0.0005,0.0004,-0.0031,-0.0027,-0.0098,-0.0119,-0.0212,-0.0307,-0.032,-0.0406,-0.044,-0.0486,-0.0486,-0.0494,-0.0493,-0.0612,-0.0505,-0.0505,-0.0504,-0.0504,0,0.0072,0.0081,0.0059,0.0064,0.009,0.0061,0.0084,0.0071,0.0065,0.0088,0.0011,0.002,-0.0113,-0.0176,-0.0283,-0.0385,-0.0391,-0.0477,-0.0497,-0.0472,-0.0469,-0.0606,-0.0694,-0.0506,-0.0506,-0.0506,-0.0505,0,0.0117,0.0101,0.0114,0.0106,0.011,0.0126,0.0137,0.0156,0.014,0.0169,0.0166,0.0112,0.0037,-0.0094,-0.0231,-0.0336,-0.0527,-0.0482,-0.0437,-0.0451,-0.0619,-0.0705,-0.086,-0.0946,-0.0553,-0.0553,-0.0553,0,0.0139,0.0148,0.0153,0.0169,0.0167,0.0185,0.0206,0.0197,0.0219,0.0235,0.0257,0.0209,0.0196,-0.0002,-0.0189,-0.0367,-0.0513,-0.0477,-0.0503,-0.0621,-0.0732,-0.0799,-0.0866,-0.0495,-0.0495,-0.0494,-0.0494,0,0.0181,0.0181,0.0193,0.0228,0.025,0.0277,0.0301,0.0337,0.0342,0.0381,0.0429,0.043,0.0265,0.0116,-0.0128,-0.0271,-0.0582,-0.0474,-0.0615,-0.071,-0.0773,-0.0866,-0.0469,-0.049,-0.0491,-0.0491,-0.0491,-0.0491,0.0218,0.0238,0.0253,0.0288,0.0318,0.0362,0.0393,0.0437,0.0502,0.0566,0.0564,0.059,0.0371,0.0055,-0.0159,-0.0527,-0.0559,-0.0636,-0.0734,-0.0793,-0.0869,-0.0453,-0.0483,-0.0484,-0.0484,-0.0484,-0.0484,0,0.0262,0.0278,0.0311,0.0347,0.0386,0.0392,0.0453,0.0492,0.0582,0.0663,0.0718,0.0646,0.0348,0.0013,-0.0454,-0.0725,-0.0867,-0.089,-0.0995,-0.1056,-0.0695,-0.0683,-0.0733,-0.0733,-0.0733,-0.0733,-0.0733,-0.0733,0.0286,0.0321,0.0331,0.0393,0.0422,0.0472,0.0509,0.0587,0.0651,0.0748,0.0784,0.0792,0.0545,-0.026,-0.086,-0.1013,-0.1268,-0.1282,-0.1434,-0.1191,-0.1175,-0.1159,-0.1169,-0.132,-0.1321,-0.1747,-0.1751,-0.1754]}],[{"header":{"parameterUnit":"m.s-1","parameterCategory":2,"la1":30.2991,"la2":30.254,"lo1":-89.0895,"lo2":-89.0444,"dy":0.0017,"dx":0.0017,"nx":28,"ny":28,"refTime":"2024-03-03T09:00:00:Z","depth":"2","parameterNumber":2,"parameterNumberName":"U-component_of_CURRENTS"},"data":[0,0,0,0,0,0,0,0,0,0,0,0,0,0,0,0,0,0,0,0,0,0,0,0,0,0,0,0,0,0,0,0,0,0,0,0,0,0,0,0,0,0,0,0,0,0,0,0,0,0,0,0,0,0,0,0,0,0,0.1633,0.1633,0,0.1636,0.1636,0.1636,0.1617,0.1616,0.1616,0.1615,0.1593,0.1593,0.1593,0,0,0,0,0,0,0,0,0,0,0,0,0,0.1608,0.1608,0.1633,0.1633,0.1633,0.1636,0.1636,0.1636,0.1617,0.1616,0.1616,0.1615,0.1593,0.1593,0.1593,0,0,0,0,0,0,0,0,0,0,0,0,0,0.1614,0.1609,0.1633,0.1625,0.1625,0.1636,0.1636,0.1636,0.1617,0.1616,0.1616,0.1615,0.1593,0.1593,0.1593,0.1602,0,0,0.1592,0.1591,0,0,0,0,0,0,0,0,0.1614,0.1615,0.1626,0.1626,0.1625,0.1627,0.1619,0.1624,0.1617,0.1618,0.1615,0.1615,0.1604,0.1602,0.1602,0.1601,0.16,0.1592,0.1591,0.1591,0.1591,0,0,0,0,0,0,0,0.1613,0.1615,0.1632,0.1626,0.1626,0.1621,0.1621,0.162,0.1612,0.1618,0.1617,0.162,0.1603,0.1603,0.1601,0.16,0.1592,0.1591,0.1591,0.1591,0.1641,0.1643,0,0,0,0,0,0,0.1617,0.1614,0.1632,0.1632,0.162,0.1622,0.1622,0.1625,0.1613,0.1611,0.1621,0.1619,0.1603,0.1602,0.1601,0.163,0.1591,0.1591,0.1591,0.164,0.1641,0.1643,0,0,0,0,0,0,0.1617,0.1619,0.1632,0.1625,0.1626,0.1624,0.1627,0.1626,0.1629,0.1616,0.1613,0.1626,0.1603,0.1601,0.161,0.1628,0.1591,0.159,0.1638,0.164,0.1642,0.1676,0,0,0,0,0,0,0.1616,0.1619,0.1622,0.1625,0.1627,0.1643,0.1628,0.1626,0.1633,0.1631,0.1619,0.1616,0.1602,0.161,0.1609,0.1627,0.159,0.1636,0.1639,0.1642,0.1673,0.1679,0.1685,0,0,0,0,0,0.1615,0.1621,0.1622,0.1624,0.1631,0.1644,0.1645,0.1639,0.1633,0.1639,0.1635,0.1616,0.1628,0.1611,0.161,0.1627,0.1634,0.1638,0.1641,0.1671,0.1678,0.1685,0,0,0,0,0,0,0.1608,0.1621,0.1621,0.1629,0.1639,0.1642,0.1647,0.1646,0.1647,0.1646,0.163,0.1628,0.1644,0.1637,0.1618,0.1654,0.1631,0.1634,0.1654,0.1661,0.1667,0.1669,0.159,0,0,0,0,0,0.1611,0.162,0.1631,0.1638,0.1645,0.1648,0.1653,0.1653,0.1655,0.1655,0.1649,0.1649,0.1658,0.1659,0.1662,0.1677,0.1689,0.1692,0.1698,0.1703,0.1706,0.1745,0.1754,0.1655,0.1654,0.1654,0,0,0.1608,0.1618,0.1622,0.1638,0.1644,0.1659,0.1649,0.1662,0.1674,0.1653,0.1666,0.1667,0.1668,0.1686,0.1694,0.1681,0.1741,0.1707,0.1711,0.1712,0.1749,0.1759,0.1767,0.1657,0.1656,0.1656,0,0,0.1614,0.1621,0.1632,0.1646,0.1663,0.1669,0.1676,0.1686,0.169,0.1705,0.17,0.1715,0.1719,0.1727,0.1732,0.1774,0.1771,0.1778,0.1805,0.1843,0.1851,0.1858,0.1899,0.191,0.178,0.178,0.178,0,0.161,0.1625,0.1637,0.1655,0.1665,0.1676,0.169,0.1704,0.1714,0.1725,0.1714,0.1745,0.174,0.1774,0.1788,0.1786,0.1809,0.1774,0.185,0.1857,0.1864,0.1903,0.1915,0.1782,0.1782,0.1782,0.1782,0,0.1624,0.1639,0.1649,0.1675,0.1689,0.1704,0.1726,0.1742,0.1749,0.1761,0.1794,0.1797,0.1814,0.1822,0.1814,0.1865,0.1867,0.1852,0.1828,0.1876,0.1915,0.1926,0.1785,0.1784,0.1784,0.1783,0,0,0.1601,0.1648,0.165,0.1664,0.1699,0.171,0.1744,0.1773,0.1798,0.1815,0.1848,0.1868,0.1873,0.188,0.1882,0.1912,0.198,0.1903,0.1904,0.1937,0.2073,0.2079,0.2091,0.1978,0.198,0.1981,0.2085,0,0.1604,0.1636,0.1661,0.1689,0.1704,0.1733,0.1764,0.1796,0.1821,0.1859,0.1883,0.1913,0.1897,0.191,0.194,0.1969,0.2009,0.1953,0.2027,0.203,0.2023,0.2104,0.189,0.1965,0.2095,0.2097,0.2099,0,0.1601,0.1625,0.165,0.1696,0.1706,0.1725,0.1772,0.1806,0.1868,0.1892,0.1933,0.1953,0.2006,0.1982,0.2064,0.2031,0.2057,0.2078,0.2082,0.2081,0.2056,0.1937,0.198,0.2117,0.2115,0.2114,0.2113,0,0.1563,0.1612,0.1629,0.1644,0.1701,0.1716,0.1749,0.1809,0.1843,0.1918,0.1955,0.2013,0.2052,0.2094,0.2139,0.2107,0.2234,0.2193,0.2227,0.2228,0.2057,0.204,0.2258,0.2258,0.2258,0.2258,0.2257,0,0.1546,0.1557,0.1612,0.1619,0.1647,0.1696,0.1736,0.178,0.1854,0.1901,0.1968,0.2023,0.2082,0.2155,0.2178,0.2253,0.227,0.2256,0.2264,0.2066,0.205,0.2179,0.2169,0.2261,0.2261,0.226,0.2259,0,0.1494,0.1531,0.1552,0.1609,0.1625,0.1644,0.1718,0.175,0.1834,0.1902,0.1931,0.2048,0.2152,0.2219,0.2306,0.2311,0.2373,0.2391,0.2165,0.2145,0.2329,0.2319,0.244,0.2441,0.2443,0.2443,0.2444,0,0.1466,0.1473,0.1528,0.1541,0.1562,0.1605,0.1634,0.1721,0.1762,0.1913,0.1942,0.2081,0.216,0.232,0.2341,0.2408,0.2437,0.2269,0.217,0.2357,0.2352,0.234,0.233,0.1956,0.1953,0.195,0.1948,0,0.1414,0.1435,0.1456,0.1487,0.151,0.1544,0.1595,0.1623,0.1735,0.1808,0.1918,0.2001,0.2159,0.2155,0.2272,0.227,0.224,0.222,0.2477,0.1956,0.1913,0.1904,0.1907,0.1924,0.1927,0.1928,0.193,0.1931,0.137,0.1373,0.1405,0.1423,0.1451,0.1466,0.1462,0.1559,0.1621,0.1735,0.1836,0.1931,0.199,0.2079,0.2038,0.2014,0.2168,0.2072,0.2074,0.2081,0.2019,0.1981,0.1994,0.1997,0.1999,0.2001,0.2003,0,0.1321,0.1321,0.1341,0.1353,0.136,0.1386,0.1417,0.1452,0.1515,0.165,0.1747,0.1684,0.1705,0.1768,0.1689,0.1716,0.1624,0.1652,0.1502,0.153,0.1554,0.1457,0.1288,0.1285,0.1283,0.1281,0,0,0.1295,0.1289,0.1296,0.1267,0.1261,0.1254,0.1247,0.1333,0.143,0.1521,0.1557,0.1702,0.1756,0.1522,0.1481,0.1374,0.1432,0.1313,0.1892,0.1746,0.1766,0.1811,0.1699,0,0,0,0,0]},{"header":{"parameterUnit":"m.s-1","parameterCategory":2,"la1":30.2991,"la2":30.254,"lo1":-89.0895,"lo2":-89.0444,"dy":0.0017,"dx":0.0017,"nx":28,"ny":28,"refTime":"2024-03-03T09:00:00:Z","depth":"2","parameterNumber":3,"parameterNumberName":"V-component_of_CURRENTS"},"data":[0,0,0,0,0,0,0,0,0,0,0,0,0,0,0,0,0,0,0,0,0,0,0,0,0,0,0,0,0,0,0,0,0,0,0,0,0,0,0,0,0,0,0,0,0,0,0,0,0,0,0,0,0,0,0,0,0,0,-0.0252,-0.0253,0,-0.0334,-0.0335,-0.0336,-0.0381,-0.0381,-0.0381,-0.0381,-0.0467,-0.047,-0.0472,0,0,0,0,0,0,0,0,0,0,0,0,0,-0.0173,-0.0175,-0.0252,-0.0253,-0.0254,-0.0334,-0.0335,-0.0337,-0.0381,-0.0381,-0.0381,-0.0381,-0.0467,-0.0469,-0.0472,0,0,0,0,0,0,0,0,0,0,0,0,0,-0.0228,-0.0175,-0.0252,-0.0285,-0.0289,-0.0334,-0.0335,-0.0337,-0.0381,-0.0381,-0.0381,-0.0381,-0.0466,-0.0469,-0.0473,-0.0494,0,0,-0.0483,-0.0485,0,0,0,0,0,0,0,0,-0.0225,-0.0231,-0.0279,-0.0283,-0.0287,-0.0346,-0.0339,-0.0389,-0.0381,-0.0348,-0.0381,-0.0381,-0.0426,-0.0433,-0.0451,-0.0498,-0.0502,-0.0483,-0.0486,-0.0487,-0.0488,0,0,0,0,0,0,0,-0.0221,-0.0228,-0.0286,-0.028,-0.0285,-0.0309,-0.0317,-0.0349,-0.0387,-0.0351,-0.0354,-0.0361,-0.0429,-0.0447,-0.0453,-0.0503,-0.0483,-0.0486,-0.0489,-0.049,-0.0554,-0.0553,0,0,0,0,0,0,-0.0206,-0.0224,-0.0283,-0.0288,-0.0254,-0.031,-0.0319,-0.0328,-0.0387,-0.0395,-0.0361,-0.0362,-0.0441,-0.0449,-0.0456,-0.0466,-0.0487,-0.049,-0.0492,-0.0554,-0.0554,-0.0553,0,0,0,0,0,0,-0.0204,-0.0211,-0.028,-0.0257,-0.0267,-0.0311,-0.0322,-0.033,-0.0345,-0.0394,-0.0403,-0.0367,-0.0442,-0.0451,-0.0476,-0.047,-0.0492,-0.0495,-0.0554,-0.0554,-0.0553,-0.0497,0,0,0,0,0,0,-0.0202,-0.021,-0.0211,-0.0256,-0.0268,-0.0299,-0.0322,-0.0332,-0.0349,-0.0352,-0.0403,-0.0411,-0.0442,-0.0471,-0.0479,-0.0475,-0.0498,-0.0555,-0.0554,-0.0554,-0.05,-0.0495,-0.0491,0,0,0,0,0,-0.0199,-0.0199,-0.0211,-0.0218,-0.0269,-0.0299,-0.0307,-0.0339,-0.0349,-0.0353,-0.0384,-0.0409,-0.0472,-0.0473,-0.0484,-0.048,-0.0555,-0.0554,-0.0554,-0.0502,-0.0496,-0.0491,0,0,0,0,0,0,-0.0165,-0.0205,-0.0219,-0.0231,-0.0258,-0.0305,-0.0313,-0.0334,-0.0363,-0.0364,-0.0408,-0.0418,-0.0438,-0.0466,-0.0465,-0.0496,-0.0517,-0.0518,-0.0474,-0.0469,-0.0464,-0.0454,-0.05,0,0,0,0,0,-0.0157,-0.0169,-0.0208,-0.0217,-0.0229,-0.0269,-0.0285,-0.0306,-0.0337,-0.035,-0.0384,-0.0417,-0.0444,-0.046,-0.049,-0.0509,-0.0534,-0.0512,-0.0508,-0.0504,-0.0502,-0.0532,-0.053,-0.055,-0.055,-0.055,0,0,-0.0146,-0.0169,-0.0176,-0.021,-0.0235,-0.0248,-0.0279,-0.0298,-0.0306,-0.0355,-0.0374,-0.0405,-0.0446,-0.0465,-0.0476,-0.0486,-0.051,-0.0503,-0.0499,-0.05,-0.0531,-0.0529,-0.0527,-0.055,-0.055,-0.055,0,0,-0.0128,-0.0149,-0.0153,-0.0173,-0.0204,-0.0229,-0.023,-0.0272,-0.0287,-0.031,-0.0343,-0.0368,-0.0413,-0.044,-0.0459,-0.0449,-0.0486,-0.0456,-0.0428,-0.0456,-0.0455,-0.0454,-0.0476,-0.0478,-0.0454,-0.0454,-0.0454,0,-0.011,-0.0124,-0.0157,-0.0166,-0.0176,-0.0215,-0.0216,-0.0239,-0.0282,-0.029,-0.0306,-0.0366,-0.0402,-0.0424,-0.042,-0.0439,-0.0459,-0.0444,-0.045,-0.045,-0.045,-0.0473,-0.0476,-0.0451,-0.0451,-0.0451,-0.0452,0,-0.01,-0.0108,-0.011,-0.0133,-0.0147,-0.0155,-0.0187,-0.0198,-0.0219,-0.0246,-0.027,-0.0319,-0.0354,-0.0367,-0.0393,-0.0407,-0.0422,-0.044,-0.0461,-0.0444,-0.047,-0.0474,-0.0447,-0.0448,-0.0449,-0.0449,0,0,-0.0061,-0.0096,-0.0094,-0.0097,-0.0129,-0.0138,-0.0144,-0.0164,-0.0162,-0.0206,-0.021,-0.0262,-0.0289,-0.0312,-0.0348,-0.0374,-0.0391,-0.0402,-0.0405,-0.0421,-0.0448,-0.0435,-0.0438,-0.041,-0.041,-0.041,-0.0464,0,-0.0039,-0.0042,-0.0067,-0.0062,-0.0065,-0.0094,-0.0093,-0.0114,-0.0137,-0.0151,-0.0201,-0.0222,-0.0268,-0.0279,-0.0314,-0.0373,-0.0399,-0.0375,-0.0466,-0.0469,-0.0457,-0.0441,-0.0429,-0.0473,-0.0467,-0.0468,-0.0468,0,-0.0017,-0.0022,-0.0015,-0.0023,-0.0025,-0.0026,-0.0027,-0.0036,-0.0065,-0.0081,-0.0116,-0.0155,-0.0202,-0.0239,-0.0334,-0.0316,-0.0375,-0.0423,-0.0427,-0.0437,-0.0462,-0.0492,-0.048,-0.0475,-0.0474,-0.0474,-0.0473,0,0.0028,0.0017,0.0027,0.0022,0.0006,0.0012,0.0006,-0.0013,-0.0004,-0.0039,-0.0035,-0.0105,-0.0126,-0.0218,-0.0313,-0.0326,-0.0411,-0.0445,-0.049,-0.049,-0.0509,-0.051,-0.0508,-0.0508,-0.0508,-0.0508,-0.0508,0,0.0062,0.0071,0.005,0.0055,0.0081,0.0052,0.0075,0.0062,0.0057,0.008,0.0003,0.0013,-0.012,-0.0182,-0.0289,-0.039,-0.0395,-0.0481,-0.0502,-0.0488,-0.0486,-0.0515,-0.0515,-0.051,-0.0509,-0.0509,-0.0509,0,0.0107,0.0091,0.0104,0.0097,0.01,0.0117,0.0128,0.0147,0.0131,0.016,0.0157,0.0104,0.0029,-0.01,-0.0236,-0.0341,-0.0453,-0.0486,-0.0455,-0.047,-0.0524,-0.0521,-0.0557,-0.0557,-0.0557,-0.0556,-0.0556,0,0.0128,0.0137,0.0143,0.0159,0.0157,0.0175,0.0196,0.0188,0.021,0.0226,0.0248,0.02,0.0179,-0.0018,-0.0208,-0.0388,-0.0413,-0.0495,-0.0522,-0.0512,-0.0529,-0.0525,-0.0522,-0.053,-0.0529,-0.0529,-0.0529,0,0.017,0.0171,0.0182,0.0217,0.024,0.0267,0.0291,0.0327,0.0332,0.0363,0.041,0.0403,0.0234,0.0057,-0.019,-0.0312,-0.047,-0.0495,-0.0497,-0.0509,-0.0488,-0.0504,-0.0501,-0.0527,-0.0527,-0.0528,-0.0528,-0.0528,0.0207,0.0226,0.0242,0.0277,0.0307,0.0351,0.0381,0.0391,0.0444,0.0444,0.0483,0.0424,0.0282,-0.0065,-0.022,-0.0421,-0.0435,-0.053,-0.0531,-0.0531,-0.0508,-0.0487,-0.0522,-0.0522,-0.0522,-0.0522,-0.0523,0,0.0241,0.0266,0.0299,0.0335,0.0361,0.0381,0.0441,0.0429,0.0463,0.0447,0.0447,0.0308,0.0134,-0.0036,-0.0329,-0.0479,-0.0497,-0.0522,-0.0519,-0.052,-0.0521,-0.0497,-0.0509,-0.0509,-0.0509,-0.0509,0,0,0.0262,0.0292,0.0302,0.0357,0.0394,0.0413,0.0449,0.043,0.04,0.036,0.031,0.0245,0.0118,-0.0086,-0.0254,-0.0396,-0.0434,-0.0422,-0.0424,-0.0404,-0.0403,-0.0519,-0.0481,0,0,0,0,0]}],[{"header":{"parameterUnit":"m.s-1","parameterCategory":2,"la1":30.2991,"la2":30.254,"lo1":-89.0895,"lo2":-89.0444,"dy":0.0017,"dx":0.0017,"nx":28,"ny":28,"refTime":"2024-03-03T09:00:00:Z","depth":"4","parameterNumber":2,"parameterNumberName":"U-component_of_CURRENTS"},"data":[0,0,0,0,0,0,0,0,0,0,0,0,0,0,0,0,0,0,0,0,0,0,0,0,0,0,0,0,0,0,0,0,0,0,0,0,0,0,0,0,0,0,0,0,0,0,0,0,0,0,0,0,0,0,0,0,0,0,0.1319,0.1319,0,0.1358,0.1358,0.1359,0.1397,0.1398,0.1398,0.1399,0.1452,0.1453,0.1454,0,0,0,0,0,0,0,0,0,0,0,0,0,0.1267,0.1267,0.1319,0.1319,0.132,0.1358,0.1358,0.1359,0.1397,0.1398,0.1399,0.1399,0.1452,0.1453,0.1454,0,0,0,0,0,0,0,0,0,0,0,0,0,0.1295,0.1268,0.1319,0.1345,0.1347,0.1358,0.1358,0.1359,0.1397,0.1398,0.1399,0.14,0.1452,0.1453,0.1454,0.1443,0,0,0.1458,0.1459,0,0,0,0,0,0,0,0,0.1293,0.1296,0.134,0.1343,0.1346,0.1375,0.136,0.1388,0.1397,0.1377,0.1399,0.14,0.1428,0.1431,0.1434,0.1446,0.1448,0.1458,0.1459,0.1459,0.146,0,0,0,0,0,0,0,0.1291,0.1295,0.1333,0.1341,0.1344,0.1351,0.1356,0.1365,0.1396,0.1379,0.1382,0.1388,0.1429,0.1433,0.1436,0.1449,0.1458,0.1459,0.146,0.1461,0.1538,0.1539,0,0,0,0,0,0,0.1288,0.1293,0.1332,0.1334,0.1323,0.1351,0.1356,0.1364,0.1396,0.1402,0.1387,0.1389,0.143,0.1434,0.1438,0.1502,0.1459,0.1461,0.1461,0.1536,0.1538,0.1539,0,0,0,0,0,0,0.1287,0.1291,0.133,0.1315,0.1321,0.1351,0.1359,0.1364,0.1395,0.1402,0.1408,0.1416,0.1431,0.1436,0.1472,0.1502,0.1461,0.1462,0.1535,0.1537,0.1539,0.1582,0,0,0,0,0,0,0.1285,0.1291,0.1308,0.1315,0.1322,0.1354,0.1358,0.1364,0.1396,0.1401,0.1428,0.1433,0.1432,0.147,0.1473,0.1503,0.1463,0.1533,0.1536,0.1538,0.1579,0.1585,0.159,0,0,0,0,0,0.1283,0.1299,0.1309,0.1314,0.134,0.1355,0.1359,0.1382,0.1397,0.1414,0.1436,0.1433,0.1488,0.1472,0.1475,0.1506,0.1532,0.1535,0.1538,0.1576,0.1584,0.159,0,0,0,0,0,0,0.1287,0.1305,0.1315,0.1337,0.1354,0.1363,0.1385,0.1397,0.1426,0.1441,0.1446,0.1452,0.1494,0.1494,0.1476,0.1536,0.1511,0.1515,0.1539,0.1546,0.1552,0.1548,0.1464,0,0,0,0,0,0.1295,0.1315,0.1327,0.1349,0.1359,0.1377,0.1392,0.1407,0.1426,0.1442,0.1461,0.1483,0.1503,0.1521,0.1535,0.1566,0.1565,0.1589,0.1595,0.16,0.1599,0.1625,0.1633,0.1549,0.1549,0.1549,0,0,0.1303,0.1317,0.1329,0.1352,0.1369,0.1386,0.1389,0.1419,0.1441,0.1442,0.1489,0.1504,0.1515,0.1551,0.1571,0.1559,0.1625,0.1604,0.1608,0.1604,0.1629,0.1637,0.1645,0.1551,0.155,0.155,0,0,0.1318,0.1342,0.136,0.1376,0.1405,0.1413,0.1427,0.1451,0.1475,0.1511,0.1521,0.1554,0.1586,0.1599,0.1608,0.1654,0.1653,0.1668,0.1698,0.1723,0.173,0.1736,0.1749,0.1756,0.1674,0.1674,0.1674,0,0.133,0.135,0.1368,0.1387,0.1406,0.1428,0.1448,0.147,0.1506,0.1527,0.1536,0.1593,0.1605,0.1643,0.1664,0.1667,0.1679,0.1669,0.173,0.1736,0.1742,0.1753,0.176,0.1676,0.1676,0.1676,0.1676,0,0.1346,0.1374,0.1388,0.1418,0.144,0.1464,0.149,0.1523,0.1553,0.1572,0.1627,0.1645,0.1678,0.1693,0.1694,0.1745,0.174,0.1732,0.171,0.1753,0.1762,0.1769,0.168,0.1679,0.1678,0.1678,0,0,0.1338,0.1389,0.1397,0.1417,0.146,0.1475,0.152,0.1556,0.1589,0.1632,0.1672,0.1715,0.1731,0.1743,0.1755,0.1782,0.1834,0.1782,0.1782,0.179,0.1892,0.1788,0.1784,0.1844,0.1845,0.1846,0.1883,0,0.1346,0.1386,0.1411,0.1452,0.1472,0.151,0.1543,0.1585,0.1625,0.1669,0.1703,0.1745,0.1748,0.1775,0.1803,0.1828,0.1853,0.1824,0.1853,0.1853,0.1752,0.1789,0.1851,0.1888,0.189,0.1891,0.1891,0,0.1345,0.1375,0.1417,0.1468,0.1482,0.1513,0.1574,0.1608,0.167,0.1704,0.1754,0.1778,0.1832,0.1824,0.1886,0.1873,0.1887,0.19,0.1901,0.1791,0.1761,0.1837,0.1903,0.1902,0.1901,0.19,0.1899,0,0.1315,0.1374,0.141,0.1429,0.149,0.1525,0.1562,0.1625,0.166,0.1734,0.1766,0.1825,0.1864,0.1896,0.1927,0.1918,0.1985,0.1968,0.1884,0.1877,0.194,0.1933,0.2005,0.2005,0.2005,0.2005,0.2005,0,0.1296,0.1327,0.1406,0.1423,0.1468,0.152,0.1573,0.1618,0.1688,0.1721,0.1786,0.1815,0.1888,0.1929,0.1945,0.1933,0.2,0.189,0.1881,0.1958,0.1953,0.1945,0.1937,0.2006,0.2006,0.2006,0.2006,0,0.1249,0.1303,0.1347,0.1427,0.1455,0.1488,0.1573,0.1605,0.1681,0.1729,0.1755,0.1833,0.1883,0.1936,0.1991,0.1945,0.195,0.1929,0.2012,0.2006,0.182,0.1814,0.1829,0.1825,0.1822,0.182,0.1818,0,0.1224,0.1246,0.1339,0.1368,0.141,0.1472,0.1508,0.1592,0.162,0.1719,0.1725,0.181,0.185,0.1838,0.1908,0.1926,0.1909,0.1891,0.1846,0.1813,0.1803,0.1802,0.18,0.1814,0.1813,0.1812,0.1811,0,0.1176,0.1224,0.1263,0.1324,0.1373,0.1414,0.1472,0.1482,0.1567,0.1648,0.1654,0.1677,0.173,0.1767,0.1799,0.1808,0.1889,0.1861,0.1867,0.1824,0.1795,0.1787,0.1789,0.1802,0.1803,0.1804,0.1804,0,0.1145,0.1161,0.1223,0.1264,0.1323,0.1337,0.1376,0.1401,0.1437,0.1533,0.1534,0.1622,0.1706,0.1707,0.1735,0.1739,0.1713,0.165,0.1666,0.1678,0.1613,0.1553,0.1478,0,0,0,0,0,0.1104,0.1116,0.1155,0.1194,0.1248,0.1281,0.1341,0.1379,0.1455,0.1419,0.147,0.1506,0.1539,0.159,0.1566,0.1689,0.1734,0.1655,0.1674,0.1747,0.1758,0.1698,0,0,0,0,0,0,0.1079,0.1117,0.1129,0.1127,0.1141,0.1186,0.1223,0.1275,0.1254,0.1337,0.1362,0.1425,0.1485,0.1543,0.1541,0.1558,0.1541,0.1715,0.1711,0.1741,0.1751,0.176,0.1701,0,0,0,0,0]},{"header":{"parameterUnit":"m.s-1","parameterCategory":2,"la1":30.2991,"la2":30.254,"lo1":-89.0895,"lo2":-89.0444,"dy":0.0017,"dx":0.0017,"nx":28,"ny":28,"refTime":"2024-03-03T09:00:00:Z","depth":"4","parameterNumber":3,"parameterNumberName":"V-component_of_CURRENTS"},"data":[0,0,0,0,0,0,0,0,0,0,0,0,0,0,0,0,0,0,0,0,0,0,0,0,0,0,0,0,0,0,0,0,0,0,0,0,0,0,0,0,0,0,0,0,0,0,0,0,0,0,0,0,0,0,0,0,0,0,-0.0196,-0.0196,0,-0.0237,-0.0237,-0.0238,-0.0269,-0.0269,-0.0269,-0.027,-0.0329,-0.033,-0.0332,0,0,0,0,0,0,0,0,0,0,0,0,0,-0.0157,-0.0157,-0.0196,-0.0196,-0.0197,-0.0237,-0.0237,-0.0238,-0.0269,-0.0269,-0.027,-0.027,-0.0329,-0.033,-0.0332,0,0,0,0,0,0,0,0,0,0,0,0,0,-0.0183,-0.0157,-0.0196,-0.0217,-0.0219,-0.0236,-0.0237,-0.0238,-0.0269,-0.0269,-0.027,-0.027,-0.0328,-0.033,-0.0332,-0.0336,0,0,-0.0338,-0.0339,0,0,0,0,0,0,0,0,-0.0182,-0.0185,-0.0213,-0.0216,-0.0218,-0.0248,-0.0245,-0.0271,-0.0269,-0.025,-0.027,-0.027,-0.0303,-0.0307,-0.0314,-0.0338,-0.0341,-0.0338,-0.0339,-0.034,-0.0341,0,0,0,0,0,0,0,-0.018,-0.0183,-0.0212,-0.0214,-0.0217,-0.0229,-0.0233,-0.025,-0.0274,-0.0252,-0.0254,-0.0258,-0.0305,-0.0312,-0.0316,-0.0342,-0.0338,-0.034,-0.0341,-0.0342,-0.0378,-0.0378,0,0,0,0,0,0,-0.0174,-0.0181,-0.0211,-0.0213,-0.0201,-0.0229,-0.0234,-0.0238,-0.0274,-0.0279,-0.0258,-0.026,-0.0308,-0.0313,-0.0318,-0.0326,-0.034,-0.0342,-0.0343,-0.0378,-0.0378,-0.0378,0,0,0,0,0,0,-0.0173,-0.0176,-0.0209,-0.0198,-0.0203,-0.0229,-0.0234,-0.0239,-0.0251,-0.0278,-0.0284,-0.0266,-0.0309,-0.0315,-0.0334,-0.0328,-0.0343,-0.0345,-0.0378,-0.0378,-0.0378,-0.034,0,0,0,0,0,0,-0.0171,-0.0175,-0.0177,-0.0198,-0.0204,-0.0219,-0.0234,-0.0239,-0.0252,-0.0255,-0.0287,-0.0292,-0.031,-0.0331,-0.0336,-0.0331,-0.0346,-0.0379,-0.0378,-0.0378,-0.0342,-0.0339,-0.0336,0,0,0,0,0,-0.017,-0.0169,-0.0177,-0.0181,-0.0205,-0.0219,-0.0223,-0.0243,-0.0252,-0.0256,-0.0276,-0.0292,-0.0332,-0.0332,-0.0338,-0.0334,-0.0379,-0.0378,-0.0378,-0.0343,-0.0339,-0.0336,0,0,0,0,0,0,-0.0154,-0.0173,-0.0182,-0.0188,-0.0202,-0.0224,-0.023,-0.0243,-0.0262,-0.0265,-0.0291,-0.0298,-0.0313,-0.0328,-0.0328,-0.0343,-0.0357,-0.0358,-0.0328,-0.0325,-0.0322,-0.0309,-0.0348,0,0,0,0,0,-0.015,-0.0155,-0.0175,-0.018,-0.0186,-0.0208,-0.0217,-0.0229,-0.0248,-0.0257,-0.0279,-0.0299,-0.0314,-0.0324,-0.0342,-0.035,-0.0359,-0.0351,-0.0348,-0.0345,-0.0339,-0.0344,-0.034,-0.0376,-0.0376,-0.0376,0,0,-0.0145,-0.0156,-0.0159,-0.0177,-0.019,-0.0193,-0.0214,-0.0226,-0.0227,-0.026,-0.027,-0.0293,-0.0315,-0.0325,-0.0332,-0.0337,-0.0341,-0.0345,-0.0342,-0.0337,-0.0343,-0.0339,-0.0336,-0.0376,-0.0376,-0.0376,0,0,-0.0133,-0.0147,-0.0146,-0.0156,-0.0173,-0.0184,-0.0187,-0.0209,-0.0219,-0.0232,-0.0253,-0.027,-0.0298,-0.0308,-0.0317,-0.0309,-0.0328,-0.0317,-0.029,-0.0295,-0.0292,-0.0289,-0.0298,-0.0296,-0.0313,-0.0313,-0.0313,0,-0.0125,-0.0128,-0.0148,-0.0148,-0.0152,-0.0178,-0.0175,-0.0185,-0.0211,-0.0212,-0.0231,-0.0262,-0.0286,-0.0287,-0.0287,-0.0301,-0.0309,-0.03,-0.029,-0.0288,-0.0286,-0.0295,-0.0294,-0.0311,-0.0311,-0.0311,-0.0312,0,-0.0113,-0.0115,-0.0114,-0.0121,-0.0128,-0.0131,-0.0146,-0.0151,-0.0167,-0.0179,-0.0191,-0.0223,-0.0239,-0.025,-0.0268,-0.0263,-0.0275,-0.0287,-0.0296,-0.0279,-0.0291,-0.029,-0.0308,-0.0309,-0.031,-0.031,0,0,-0.0093,-0.0103,-0.0102,-0.0098,-0.0114,-0.0115,-0.0113,-0.0116,-0.0107,-0.0136,-0.0128,-0.0162,-0.0182,-0.0193,-0.0217,-0.0224,-0.0223,-0.0247,-0.0249,-0.0251,-0.0235,-0.0258,-0.0259,-0.0233,-0.0233,-0.0232,-0.025,0,-0.0077,-0.0068,-0.0078,-0.0065,-0.0062,-0.0076,-0.0067,-0.0072,-0.0084,-0.0083,-0.011,-0.0121,-0.0158,-0.0167,-0.0178,-0.0211,-0.0219,-0.0217,-0.0255,-0.0256,-0.0274,-0.0258,-0.0231,-0.0249,-0.0249,-0.0249,-0.0249,0,-0.006,-0.0056,-0.0043,-0.0032,-0.003,-0.0024,-0.0011,-0.0009,-0.0012,-0.002,-0.0034,-0.0062,-0.0078,-0.0114,-0.0154,-0.0151,-0.0189,-0.0216,-0.0218,-0.025,-0.0277,-0.027,-0.0248,-0.0248,-0.0248,-0.0248,-0.0249,0,-0.0037,-0.0028,-0.0015,-0.0014,-0.0007,0.0004,0.0008,0.0009,0.0021,0.0016,0.0022,-0.0006,-0.002,-0.0064,-0.0135,-0.0141,-0.0179,-0.0195,-0.0249,-0.0252,-0.0243,-0.0246,-0.022,-0.022,-0.022,-0.022,-0.0219,0,-0.0016,-0.0004,-0.0002,0.0006,0.0034,0.0027,0.0056,0.0058,0.0069,0.0088,0.0052,0.0058,-0.0008,-0.0045,-0.011,-0.0178,-0.0162,-0.0239,-0.0254,-0.0228,-0.0229,-0.0243,-0.0246,-0.022,-0.022,-0.022,-0.022,0,0.0003,0.0003,0.0023,0.0036,0.0044,0.0061,0.0086,0.0107,0.0111,0.0136,0.0136,0.0112,0.0059,-0.0015,-0.0088,-0.0145,-0.021,-0.0242,-0.0207,-0.0221,-0.0284,-0.0285,-0.0291,-0.0292,-0.0293,-0.0293,-0.0294,0,0.0013,0.0023,0.0044,0.0059,0.0064,0.0089,0.0111,0.0126,0.0145,0.0166,0.018,0.0143,0.0111,0.0005,-0.0084,-0.0202,-0.0228,-0.026,-0.0273,-0.0276,-0.029,-0.0289,-0.0289,-0.0295,-0.0295,-0.0296,-0.0296,0,0.003,0.0036,0.0051,0.0079,0.0103,0.0135,0.0161,0.0184,0.0204,0.0215,0.0221,0.0163,0.0105,0.0009,-0.0089,-0.0175,-0.0235,-0.0268,-0.0267,-0.028,-0.028,-0.0294,-0.0292,-0.0298,-0.0298,-0.0298,-0.0297,0,0.0043,0.0054,0.0071,0.0098,0.0129,0.0162,0.018,0.0204,0.0228,0.0247,0.0248,0.0186,0.0153,0.0022,-0.0065,-0.0156,-0.0183,-0.0212,-0.0215,-0.0213,-0.0196,-0.0186,-0.018,0,0,0,0,0,0.0051,0.0061,0.0087,0.0113,0.0146,0.016,0.0206,0.0222,0.0246,0.0256,0.0254,0.0197,0.0078,0.003,-0.0064,-0.0096,-0.0211,-0.0211,-0.025,-0.0312,-0.0309,-0.0305,0,0,0,0,0,0,0.0055,0.0075,0.0084,0.0119,0.0135,0.0172,0.0198,0.0218,0.0224,0.0239,0.018,0.0161,0.0043,0.0126,-0.0071,-0.0098,-0.0138,-0.0264,-0.0267,-0.0314,-0.0311,-0.0309,-0.0304,0,0,0,0,0]}]]